GFSSW_850_spd_102.txt.gz
Wind_Speed
8 6 5 6 8 10 13 15 17 20 17 16 19 20 14 9 10 16 12 12 14 12 5 5 3 4 2 4 6 4 2 4 4 2 3 6 3 2 4 3 5 14 10 8 20
7 6 5 5 7 8 11 14 16 18 17 15 19 20 10 6 9 17 15 14 11 11 11 8 6 9 1 2 3 3 3 4 3 5 5 12 3 8 3 4 5 10 13 9 28
8 8 6 7 8 10 12 14 16 17 18 14 16 19 10 3 2 13 14 14 11 7 11 12 8 8 3 4 4 3 6 2 7 16 19 18 15 10 7 4 15 22 25 19 33
8 8 8 8 9 11 12 14 16 17 17 13 14 13 6 12 3 13 12 11 11 5 9 10 11 6 2 3 4 5 13 15 12 20 19 14 17 5 14 14 17 24 26 33 34
9 10 10 11 11 12 13 14 15 15 14 10 11 6 7 6 7 12 12 12 11 11 8 11 10 7 3 6 11 4 3 13 12 17 15 14 10 9 12 11 7 13 24 34 33
10 11 12 12 12 11 12 13 13 13 10 8 10 4 7 4 11 14 15 13 11 11 12 7 6 8 6 5 1 9 16 15 14 19 17 9 10 5 3 14 19 19 31 39 45
11 11 11 11 11 12 13 14 13 10 8 5 8 2 3 5 10 18 16 14 12 11 12 10 6 6 7 5 4 14 6 7 11 11 5 12 14 3 7 12 22 24 27 37 41
11 12 12 13 13 13 13 13 11 7 6 3 8 1 2 6 9 18 11 16 13 12 11 10 11 10 4 7 7 4 3 4 7 5 5 4 6 10 18 14 19 22 29 34 44
13 14 15 15 15 14 13 14 6 2 7 2 6 2 2 9 15 11 9 15 13 9 12 12 8 4 4 2 4 3 5 6 6 5 4 5 4 7 21 19 21 23 27 35 40
14 14 15 15 14 14 14 9 6 3 8 1 5 2 4 11 13 6 9 13 11 15 13 2 1 3 3 2 4 6 7 7 7 4 4 10 7 7 21 20 22 23 24 30 42
14 14 15 15 12 16 14 4 4 0 5 2 2 3 8 12 3 6 7 11 6 4 1 1 2 5 9 6 5 6 5 9 9 7 7 11 10 8 16 15 18 24 21 28 31
14 15 15 14 11 13 14 11 9 5 6 4 4 6 7 7 6 8 4 3 3 4 4 5 3 7 7 8 6 7 7 11 8 5 7 9 16 7 7 11 17 22 20 24 28
14 15 14 13 8 13 14 15 10 8 2 4 1 4 5 6 6 10 5 2 2 4 7 3 5 7 3 5 7 5 7 6 11 5 5 5 15 5 6 12 16 22 20 21 31
14 15 14 13 5 9 9 12 9 4 4 2 2 2 5 3 5 14 5 3 3 4 6 5 3 4 4 5 4 8 6 12 14 7 6 2 11 4 6 9 5 14 20 16 25
13 14 14 13 7 7 10 10 6 1 4 2 2 5 9 3 12 9 2 2 2 5 5 7 4 3 3 5 3 10 12 8 12 13 4 5 3 6 4 5 7 9 20 21 24
12 13 12 11 10 11 11 7 2 4 3 4 2 6 8 3 4 7 11 4 2 5 2 6 6 2 3 7 8 13 6 13 3 1 3 7 4 5 4 8 11 16 21 18 16
10 11 9 9 10 13 12 3 4 5 4 6 4 6 4 3 6 6 3 7 3 6 8 7 6 6 3 8 5 5 6 4 5 4 3 11 5 5 7 10 7 12 17 6 7
9 9 4 7 12 13 10 4 7 2 3 3 4 8 3 7 5 8 3 3 6 4 2 4 9 2 4 4 5 4 3 1 3 5 5 5 3 5 13 12 13 19 17 16 15
8 9 4 5 12 13 4 5 4 2 2 4 8 4 5 6 4 8 6 2 1 2 1 4 6 6 5 5 1 3 4 2 1 3 4 2 2 3 4 9 13 19 25 23 21
8 8 5 3 11 7 4 2 3 0 2 1 1 3 3 5 6 6 3 2 3 2 3 2 6 3 8 6 5 1 6 1 2 5 5 6 4 6 4 5 7 5 14 18 13
6 5 2 2 9 2 3 4 2 1 1 0 1 3 3 2 3 3 2 1 2 5 4 1 2 8 4 3 5 3 3 1 4 1 3 4 4 6 4 0 1 7 8 8 11
3 1 4 3 2 2 1 3 3 2 2 2 2 4 3 4 4 3 2 2 10 3 4 1 2 5 7 8 7 4 3 3 3 6 0 1 4 5 5 6 9 12 17 16 19
3 3 6 4 2 1 3 2 4 2 1 1 1 2 2 2 2 2 4 3 15 6 2 1 1 5 10 6 6 4 6 3 3 3 3 2 3 3 7 8 9 14 14 13 15
4 0 4 6 4 5 3 2 1 3 3 3 3 3 2 2 3 4 4 3 19 13 4 2 2 6 5 9 3 7 13 10 3 2 2 3 3 4 4 3 6 9 9 11 12
9 6 6 3 5 5 5 2 1 2 3 4 1 4 3 2 4 4 2 6 6 4 3 3 3 4 8 15 10 13 11 5 4 3 3 3 1 5 4 6 8 9 11 11 13
10 7 6 3 6 8 6 6 7 3 4 3 3 2 4 4 6 5 2 3 6 4 3 5 4 5 6 3 4 3 3 3 3 3 3 3 3 4 7 10 11 15 14 13 14
22 13 8 5 4 5 5 6 6 9 4 4 3 2 3 6 11 17 22 19 16 5 2 2 2 3 5 6 8 2 3 1 2 1 2 2 2 2 5 7 5 10 16 18 18

GFSSW_850_spd_105.txt.gz
Wind_Speed
6 6 5 6 7 9 11 14 15 15 16 13 17 14 8 11 17 17 16 14 12 12 10 5 4 6 2 2 4 3 1 3 2 3 3 3 4 3 7 5 5 6 3 7 21
7 7 6 7 8 9 11 12 14 14 16 14 15 11 7 3 12 18 16 15 12 10 10 11 7 7 2 1 2 2 3 5 4 4 4 11 3 10 4 5 8 10 9 11 22
7 8 8 7 9 9 10 12 12 13 15 13 12 8 10 3 3 14 14 13 14 10 11 9 11 6 2 2 2 1 3 2 4 14 19 14 14 10 4 4 15 16 21 21 30
8 9 9 8 9 10 10 11 12 13 12 9 9 9 7 12 3 12 13 12 10 9 9 8 7 5 3 4 3 4 6 3 7 10 9 7 15 6 13 14 23 22 17 26 33
8 9 9 10 10 11 11 12 12 11 9 6 6 8 8 9 8 13 12 12 9 10 12 10 7 5 3 4 8 4 2 11 14 16 12 14 14 9 14 16 20 17 19 28 32
9 9 10 10 10 10 11 12 11 8 6 4 4 5 6 5 11 15 13 14 12 11 10 10 6 8 6 3 1 4 10 15 12 17 13 10 9 7 3 9 19 15 20 29 39
9 10 11 11 11 11 11 11 10 5 3 3 3 3 6 5 10 14 11 13 13 11 9 8 9 7 8 5 4 9 4 8 2 5 6 4 5 5 13 16 20 21 22 25 40
10 10 10 10 11 11 11 11 8 2 2 1 4 2 2 8 9 10 9 13 12 11 12 11 9 9 3 8 8 4 3 4 7 4 4 3 6 7 9 9 10 16 20 26 33
9 11 12 13 12 11 12 11 4 1 5 2 4 2 2 7 10 7 8 10 11 12 12 9 6 4 4 2 4 4 4 4 6 7 5 4 6 6 21 13 13 15 14 27 35
11 13 13 14 12 12 13 6 3 4 5 1 4 1 5 7 6 5 6 8 9 11 7 5 3 3 3 3 5 6 5 5 7 5 5 9 9 12 20 18 15 14 15 16 30
12 13 14 15 11 13 12 1 1 0 3 3 1 2 6 10 6 6 8 9 6 5 3 4 4 4 9 5 5 6 4 6 9 9 5 8 8 9 18 19 16 19 17 16 21
11 12 13 14 10 13 12 8 8 4 3 4 1 4 6 8 6 8 5 4 4 4 3 5 3 5 7 6 5 6 7 12 10 6 4 9 11 8 7 9 20 17 18 18 19
9 11 12 13 8 12 15 13 8 7 2 1 1 4 4 5 6 7 5 4 2 4 4 3 6 7 5 7 6 6 7 6 10 10 4 7 7 6 4 9 16 13 13 11 16
9 11 11 10 5 12 11 12 7 3 4 4 1 2 5 6 3 9 4 3 4 4 5 4 5 5 6 5 2 6 4 9 13 10 6 8 5 5 7 7 5 14 19 18 15
8 10 10 9 8 10 10 8 4 2 4 1 1 3 13 3 5 10 8 2 1 5 3 7 5 7 4 5 2 9 11 8 7 7 4 6 2 7 7 7 14 13 25 22 14
7 8 7 8 10 11 10 5 2 5 2 4 3 7 7 5 3 3 12 4 2 3 2 6 6 3 3 10 4 10 4 4 4 3 2 4 6 5 4 8 14 14 21 14 6
6 7 5 6 9 11 9 2 5 5 4 4 3 5 4 4 6 4 3 7 4 7 8 8 6 6 2 7 3 9 6 4 6 5 6 6 2 6 8 8 9 10 14 12 2
6 6 4 3 9 10 5 4 6 2 2 2 4 6 2 8 3 7 2 3 3 1 1 4 9 5 5 2 5 4 3 2 3 5 5 7 7 5 5 7 13 17 14 19 16
7 6 4 4 8 7 1 5 6 4 2 4 7 4 4 4 3 5 3 1 1 3 3 5 6 5 4 4 2 5 5 2 3 4 3 3 2 5 9 10 14 18 26 27 25
8 7 5 4 6 4 4 3 4 2 0 2 1 2 3 5 6 6 2 3 4 1 2 1 6 3 7 2 4 2 6 2 3 5 5 6 3 5 13 13 12 12 17 21 21
7 4 4 4 4 1 3 5 4 3 2 3 2 2 2 2 2 3 2 2 3 5 1 1 2 7 4 2 2 5 4 3 4 1 2 5 4 4 6 9 7 10 14 18 21
4 1 5 4 0 2 3 5 5 4 2 1 2 3 3 2 3 2 2 3 5 4 4 1 3 5 7 6 3 3 2 3 3 3 2 1 5 4 5 6 9 9 12 17 20
4 4 7 5 2 2 2 2 5 4 3 4 3 2 2 1 2 3 2 4 13 4 3 2 1 5 9 6 5 4 4 2 1 2 3 2 5 3 6 9 11 11 13 17 18
5 1 4 7 4 5 4 4 4 6 4 4 3 2 1 1 3 4 2 2 12 6 4 1 2 5 5 7 0 7 13 4 1 1 1 3 5 8 5 4 6 8 11 13 13
10 6 7 3 5 5 6 6 5 5 5 9 2 4 4 2 2 4 1 5 5 4 3 3 3 3 7 13 6 8 10 8 2 3 2 2 2 5 6 1 3 7 9 13 14
10 7 9 5 4 9 6 7 9 3 7 4 5 6 6 6 8 6 3 3 5 2 2 4 3 3 6 3 2 6 7 5 2 2 0 1 1 2 3 1 4 4 7 10 12
25 13 6 7 7 6 6 7 10 9 7 5 8 5 6 11 16 18 19 13 10 5 2 1 1 2 5 5 7 3 4 2 1 1 2 3 2 4 0 1 2 4 7 10 11

GFSSW_850_spd_108.txt.gz
Wind_Speed
4 5 4 4 6 7 9 11 13 14 16 13 13 9 5 12 17 18 18 16 14 13 12 7 7 7 3 3 3 3 1 2 2 2 3 3 5 2 8 8 8 4 4 5 16
5 6 6 7 8 9 10 11 12 13 14 11 10 6 5 1 11 18 15 14 14 13 14 11 9 6 2 2 1 3 3 5 4 3 4 10 6 5 6 10 10 9 6 6 18
6 6 7 7 9 9 10 11 12 12 11 9 8 6 10 1 4 13 13 12 12 13 12 11 10 6 3 3 4 2 3 3 5 9 13 8 12 12 5 5 15 14 11 15 20
7 7 8 9 9 9 9 9 10 10 9 7 6 7 11 7 4 10 10 10 9 11 12 9 10 6 4 3 2 2 7 5 5 5 6 6 13 6 15 16 15 23 14 19 28
8 9 9 10 10 10 10 9 9 9 6 5 4 6 7 8 7 9 11 11 11 11 12 12 10 6 3 3 6 3 3 7 14 19 17 18 14 12 15 14 18 24 18 24 32
8 9 9 10 10 11 11 10 9 7 4 2 3 4 4 4 9 8 10 10 11 11 9 10 7 6 1 2 1 5 10 16 12 12 10 5 10 6 4 9 16 19 19 22 32
8 10 10 11 11 11 11 10 9 4 1 2 3 2 5 4 7 7 9 10 11 10 9 9 8 6 7 4 3 6 4 7 2 6 6 3 6 5 7 6 11 13 14 23 32
9 10 11 12 11 11 11 10 5 1 1 2 2 2 0 7 6 6 7 9 10 10 11 9 6 6 1 6 5 4 3 4 7 5 4 1 7 12 11 15 19 13 10 14 28
8 10 12 13 11 13 13 8 1 3 2 2 2 2 2 5 7 6 7 9 11 9 9 5 4 3 3 3 4 5 4 4 7 5 4 3 7 8 19 27 18 20 14 8 19
9 11 13 13 11 12 11 4 5 5 3 2 5 2 5 6 7 6 9 10 10 12 4 5 4 3 3 4 3 6 5 4 6 5 0 9 11 12 23 21 18 20 18 14 13
9 11 13 13 10 12 11 2 1 2 4 3 3 3 5 10 5 6 11 11 5 5 3 4 5 3 6 3 6 6 4 7 10 9 4 7 9 13 19 18 15 18 19 18 16
9 11 13 12 10 12 9 5 7 3 2 3 1 2 5 10 6 9 9 5 5 4 3 6 1 4 5 6 5 7 7 8 8 6 4 8 10 15 12 13 18 17 17 16 16
8 10 12 10 6 10 12 9 5 5 2 2 3 4 4 6 5 8 9 6 1 4 2 3 5 4 3 8 6 6 5 5 11 8 2 8 6 6 5 8 11 10 10 12 14
7 10 10 9 4 10 10 9 4 6 4 6 4 2 5 7 2 6 8 3 2 3 4 5 3 4 7 5 2 7 2 6 7 5 4 6 4 5 10 7 6 19 25 21 13
6 7 8 7 6 8 8 5 4 2 3 4 4 5 13 1 4 5 9 2 3 4 3 5 5 5 4 6 2 8 10 2 1 4 3 8 2 6 7 10 16 18 25 27 15
6 7 6 5 7 10 8 2 2 5 0 4 4 6 6 6 4 4 7 6 2 3 2 6 5 2 3 8 1 8 3 3 2 3 3 7 4 5 10 15 16 16 22 22 16
7 7 7 5 7 11 6 1 5 5 3 4 3 5 3 4 5 7 4 7 4 7 7 8 5 4 2 6 4 8 6 5 6 6 3 6 4 4 17 13 8 14 17 16 9
8 7 7 6 7 10 3 3 4 2 3 2 3 4 2 6 4 6 2 4 4 4 2 4 8 6 6 1 3 4 3 3 2 5 5 5 3 5 15 21 19 22 18 20 17
9 8 8 6 6 7 2 4 6 5 3 1 3 4 4 3 2 5 3 0 2 2 3 5 6 5 3 3 2 3 4 1 1 0 2 4 4 5 12 18 19 19 23 27 27
10 8 10 7 4 3 3 4 5 3 4 3 2 1 1 4 5 5 1 2 3 2 3 1 5 2 6 2 5 5 3 3 3 5 6 4 4 7 14 15 14 15 19 23 24
9 5 6 8 3 1 3 5 4 5 5 4 5 2 3 2 1 2 3 1 2 4 2 2 2 7 3 3 1 4 3 3 1 2 1 6 4 3 4 7 11 12 16 20 24
6 1 7 9 2 1 3 5 5 5 4 1 3 4 3 1 2 2 3 3 3 3 4 0 3 5 6 3 3 0 2 3 3 5 2 1 5 2 4 4 4 12 14 16 19
5 5 9 11 4 3 2 2 6 4 4 5 5 3 2 3 1 4 2 3 7 4 2 2 1 4 8 4 4 4 2 0 1 2 2 2 5 1 7 7 7 8 9 11 16
4 1 5 10 5 6 5 5 4 6 5 5 4 3 2 2 4 3 2 1 6 1 4 3 2 5 5 6 1 6 10 1 1 2 2 5 6 6 7 5 6 8 10 13 13
9 6 7 4 5 5 7 8 6 6 4 8 1 5 6 3 2 4 3 3 3 5 3 3 2 3 6 9 5 7 10 7 5 4 3 4 3 4 3 2 4 7 9 12 14
9 6 6 3 3 9 7 9 11 5 8 5 5 8 6 6 8 5 4 2 5 3 3 3 2 4 5 3 1 6 8 7 6 3 5 3 5 3 1 3 4 6 7 9 11
29 9 5 6 6 6 6 7 10 10 9 7 11 6 5 12 17 17 14 9 6 6 1 2 1 3 5 5 9 5 4 4 2 3 4 4 5 1 3 5 5 5 6 8 11

GFSSW_850_spd_111.txt.gz
Wind_Speed
4 4 4 6 7 7 8 9 10 11 11 8 6 4 3 10 16 16 16 14 13 14 12 7 7 6 6 4 3 3 1 2 4 5 4 3 5 2 4 3 6 4 5 4 7
4 5 6 7 8 8 8 9 9 9 9 8 5 4 3 3 12 16 14 12 12 12 12 11 9 5 4 3 2 2 2 5 4 3 4 11 9 9 6 12 4 7 11 9 10
5 6 7 8 9 9 9 9 9 9 8 6 6 5 8 6 4 12 12 11 11 12 11 10 10 5 4 3 3 1 3 3 7 11 10 7 13 12 10 10 10 12 10 10 16
6 7 8 9 9 9 9 9 9 8 5 4 5 7 11 4 3 8 10 9 10 10 10 8 10 4 3 2 2 2 5 5 6 7 6 7 10 11 16 16 20 19 16 15 22
7 8 9 10 10 10 10 9 8 7 2 2 5 4 6 8 6 6 8 8 9 9 10 10 12 3 2 1 4 2 3 4 12 19 16 17 15 14 11 18 17 20 17 17 23
8 9 10 11 11 11 9 9 7 5 0 2 4 4 2 4 5 6 7 7 8 8 8 8 5 5 2 1 0 2 9 14 11 8 9 5 6 1 7 9 12 17 20 20 24
8 9 10 11 12 11 11 9 6 1 2 2 6 3 5 3 3 4 5 6 9 9 8 7 6 4 3 2 3 3 5 7 3 4 5 2 4 4 4 5 9 18 12 15 19
9 10 11 12 10 12 11 8 1 4 3 3 4 3 1 3 3 4 5 7 11 9 11 5 5 3 3 5 4 3 2 6 6 7 3 1 9 9 13 8 18 22 14 13 16
9 11 12 13 10 12 10 3 3 5 5 3 4 2 0 2 4 6 9 10 11 9 7 4 2 3 3 3 3 4 6 7 8 2 4 1 10 9 17 19 18 20 16 14 13
9 11 12 13 10 10 8 4 7 5 5 4 4 2 2 4 7 7 10 11 10 10 3 5 3 2 3 4 5 6 6 6 10 5 6 12 14 14 20 15 15 18 21 17 15
9 11 12 11 10 11 7 3 3 2 3 4 5 4 4 9 3 8 11 11 6 5 4 6 4 2 4 3 5 6 5 12 15 13 6 10 15 14 21 17 15 16 20 17 15
8 10 12 10 9 10 7 2 3 5 4 3 3 3 5 10 3 9 13 7 5 3 4 4 1 2 4 5 4 7 10 9 10 4 4 9 16 10 12 13 10 8 11 15 15
7 9 10 10 6 9 9 4 3 7 3 1 2 2 4 7 4 7 12 7 1 3 2 3 3 3 2 6 7 7 4 7 7 7 2 12 5 8 21 12 12 19 17 14 15
6 8 9 9 4 11 9 7 4 4 4 4 3 2 4 7 1 6 11 4 2 2 3 4 3 4 4 4 2 5 2 7 4 2 5 10 3 5 20 20 22 25 21 19 15
5 6 8 7 5 9 8 4 2 1 2 2 3 3 6 3 4 6 12 1 2 4 2 4 5 4 3 4 2 7 10 1 2 1 1 13 2 2 16 20 25 29 24 19 15
6 5 5 6 6 10 8 1 1 5 2 2 2 5 4 7 5 8 4 7 1 3 3 4 5 2 3 4 0 11 3 3 3 1 3 9 3 5 11 17 21 24 20 18 14
8 7 6 4 5 9 6 1 4 4 3 2 2 4 1 4 4 6 4 6 4 6 6 7 4 4 3 5 4 10 6 4 4 6 3 5 3 4 15 21 15 17 19 15 13
9 8 7 6 5 8 3 3 2 2 4 1 2 1 3 5 4 7 2 4 4 4 2 4 6 6 6 2 3 4 3 3 1 3 6 7 7 6 11 19 23 20 19 19 18
10 9 8 7 5 4 0 2 5 5 4 4 2 3 3 3 2 5 2 1 1 2 3 3 5 5 0 3 2 2 4 2 3 1 3 3 1 4 17 20 26 26 29 26 24
10 8 10 8 7 2 3 4 3 3 5 3 3 1 1 3 4 4 1 1 2 1 2 2 4 2 5 1 5 4 3 1 3 5 5 5 3 9 13 16 16 17 21 26 24
8 4 6 10 8 3 3 6 4 5 4 4 5 3 3 1 1 1 3 1 1 3 2 3 2 5 2 4 2 3 3 4 1 1 1 5 3 5 1 9 11 15 18 23 25
6 1 8 12 4 0 4 6 6 6 4 2 4 3 5 5 2 2 3 3 1 2 2 1 3 4 4 5 3 1 2 3 2 2 0 1 3 2 2 5 7 9 13 17 20
5 5 10 14 4 3 3 2 7 5 5 5 5 3 3 5 1 4 2 2 3 1 1 3 1 3 5 2 2 2 1 2 2 1 2 1 2 1 2 3 7 7 9 13 16
6 1 6 13 5 6 5 5 5 6 5 5 5 5 3 3 3 1 2 2 2 0 2 4 3 4 4 4 1 5 4 1 2 1 1 4 4 2 3 2 3 6 8 12 15
12 6 7 4 6 5 6 8 7 6 4 8 1 5 6 4 2 4 3 2 1 2 2 3 3 3 6 10 4 6 14 6 6 4 3 2 3 2 2 2 2 5 8 12 14
15 8 7 3 4 11 7 8 11 4 8 5 5 9 6 7 7 5 4 3 4 2 2 2 1 2 4 1 4 6 8 6 5 4 5 4 4 3 2 3 6 6 8 11 13
28 18 10 8 6 6 6 7 10 11 9 6 11 6 6 11 11 6 6 4 3 5 3 1 1 3 4 4 9 4 4 5 3 4 4 4 4 5 3 5 6 7 9 12 14

GFSSW_850_spd_114.txt.gz
Wind_Speed
3 4 6 7 7 8 9 9 9 8 8 6 3 2 2 7 13 12 7 10 11 11 10 7 6 4 5 3 3 3 5 8 11 9 10 5 6 4 3 8 3 5 4 1 9
5 6 7 7 8 8 8 8 7 7 6 5 2 1 1 3 7 10 11 10 11 11 9 7 5 2 2 3 2 6 5 5 5 10 10 12 14 14 10 12 11 8 6 2 12
5 6 7 8 8 8 8 7 6 5 4 1 2 4 3 8 2 7 9 9 11 11 10 8 5 2 3 1 1 2 5 4 11 12 14 16 17 16 17 17 19 15 12 7 13
5 6 7 8 8 8 8 7 5 4 1 2 4 5 7 4 1 4 7 8 8 9 11 7 5 1 1 0 2 6 5 7 8 9 10 14 16 16 17 20 20 21 18 13 15
5 6 8 9 9 9 8 6 4 2 1 4 3 3 4 4 4 4 5 6 7 8 9 8 7 2 1 3 3 5 6 8 12 15 17 15 16 17 18 18 18 18 16 15 17
6 8 9 10 10 8 7 6 3 2 4 6 4 3 2 3 2 3 4 6 7 7 6 6 4 3 1 3 5 6 12 15 10 11 9 10 13 4 8 6 7 12 16 18 19
8 9 10 11 10 9 8 5 2 3 6 7 7 4 2 1 1 3 4 6 7 7 4 5 3 4 3 3 4 8 9 10 1 7 9 4 12 10 6 8 8 10 10 10 15
7 8 10 12 9 10 8 4 3 7 7 6 6 3 0 0 1 4 6 7 9 6 8 4 4 2 3 6 3 4 5 8 8 5 1 4 13 6 8 8 12 15 15 10 9
6 8 10 12 10 11 8 2 5 5 7 4 6 3 2 2 4 7 7 6 8 7 5 5 1 2 3 5 2 0 9 13 10 7 6 7 13 9 16 16 16 16 16 13 10
5 8 10 11 10 10 4 2 8 5 7 5 4 2 0 3 5 5 8 8 3 5 1 2 2 4 1 7 8 12 13 9 12 8 13 14 16 15 18 18 17 17 16 13 12
5 8 9 9 9 8 3 6 3 2 4 2 5 2 3 5 1 5 11 7 4 1 5 3 3 6 8 6 10 11 12 13 11 8 10 9 14 6 14 12 11 10 11 11 11
6 7 8 7 6 7 4 3 4 6 4 4 3 1 3 6 2 6 12 5 4 4 7 3 3 6 9 7 9 11 11 12 4 5 4 15 4 4 11 11 12 16 13 12 12
6 7 8 6 2 6 6 2 7 7 2 2 1 1 3 5 2 6 10 7 4 3 6 4 4 7 8 11 13 9 10 13 10 10 3 14 6 4 17 16 19 16 14 12 12
8 6 6 6 1 7 6 2 8 6 4 3 1 1 3 4 1 7 11 3 2 4 6 3 2 6 9 10 10 9 14 10 5 5 7 11 4 5 20 20 20 22 21 18 14
9 7 5 2 1 5 4 4 7 2 4 4 2 1 3 2 3 3 8 3 5 5 4 5 5 7 8 11 9 10 13 4 2 2 5 15 4 10 21 20 26 27 27 20 16
10 8 7 4 2 5 4 5 6 4 3 5 1 2 3 5 2 7 4 7 1 2 2 4 3 2 5 15 5 16 5 3 2 2 3 7 5 10 13 18 21 27 22 19 16
12 10 7 5 3 3 2 6 4 5 2 5 2 2 1 3 2 5 4 7 6 5 7 6 2 1 4 10 2 16 11 2 1 3 5 8 6 5 15 21 16 16 20 18 15
13 11 10 8 6 2 3 4 6 2 3 2 2 2 2 2 2 3 1 2 4 4 3 5 3 6 9 4 7 8 6 3 3 6 5 9 10 6 14 16 21 22 20 20 19
13 12 11 10 8 3 3 5 2 3 5 7 3 3 3 2 2 1 2 1 3 6 7 5 2 2 2 3 4 5 5 2 1 2 4 3 12 4 15 16 23 26 27 27 22
13 9 12 10 9 4 5 3 4 4 6 3 5 2 4 3 3 1 1 2 2 2 2 2 5 2 2 3 2 5 1 1 2 5 5 5 11 7 16 16 16 21 26 25 21
10 5 7 13 11 5 6 4 4 7 6 5 5 4 3 3 2 2 2 3 3 2 1 1 3 1 3 2 4 1 2 3 1 3 4 6 6 5 8 11 13 16 18 22 22
9 4 9 15 7 3 7 4 6 8 5 3 4 3 5 6 4 4 3 2 3 1 1 2 3 5 3 3 3 2 2 4 4 2 1 3 3 5 5 7 9 11 13 15 19
9 7 11 19 6 7 3 3 7 7 6 7 7 4 2 6 4 4 5 4 5 2 0 3 2 5 4 5 3 3 1 1 2 2 2 3 4 3 3 4 6 8 10 12 14
12 6 6 13 7 8 8 6 7 6 6 5 5 6 4 5 4 5 5 4 4 2 1 4 3 6 7 7 4 8 5 8 5 4 3 3 5 2 3 3 5 5 7 9 13
20 9 12 7 12 11 11 10 12 8 4 8 3 7 7 5 4 5 5 4 3 2 2 3 4 4 10 15 14 15 15 11 11 9 5 3 4 2 3 4 6 5 5 9 12
17 10 9 12 10 20 13 12 15 8 12 8 7 13 10 6 7 7 7 5 3 5 4 2 1 3 6 4 4 9 12 11 11 10 12 10 8 3 6 6 7 8 8 9 9
35 30 17 14 10 12 16 19 15 13 11 8 16 7 12 14 6 6 1 4 5 5 6 3 2 3 3 4 13 9 4 10 6 7 5 4 3 10 8 9 10 10 10 12 12

GFSSW_850_spd_117.txt.gz
Wind_Speed
4 5 6 7 8 8 8 8 7 7 7 4 1 3 1 4 10 10 7 6 7 8 9 6 4 2 1 3 4 5 6 11 13 13 11 10 8 14 6 13 10 7 9 6 9
6 6 7 8 9 9 8 7 7 6 5 2 2 2 4 2 4 8 7 9 10 10 7 7 5 2 2 3 4 7 8 12 9 10 11 13 14 14 14 11 18 15 10 4 2
7 8 9 9 9 9 8 7 6 5 3 2 1 3 3 6 3 6 6 8 9 10 7 7 6 3 3 4 4 4 11 9 10 12 13 16 17 16 17 16 20 18 12 5 8
7 8 9 9 9 9 8 7 5 4 3 3 2 3 5 4 2 1 4 7 9 9 8 8 6 4 5 5 4 8 8 8 11 11 12 14 16 18 18 18 18 19 20 17 13
7 9 9 9 10 10 7 6 5 4 4 4 3 2 2 2 4 2 4 7 7 7 8 9 7 6 7 7 7 9 8 11 14 14 16 17 18 17 19 19 17 18 21 23 19
7 8 9 10 10 8 7 6 5 5 5 6 3 3 2 3 2 2 5 6 6 6 7 7 6 7 9 9 8 10 14 15 12 11 12 13 16 16 14 6 11 14 19 19 19
7 7 9 11 10 8 8 6 5 5 6 7 4 2 3 3 1 3 6 5 8 6 7 5 5 6 10 10 5 11 10 11 1 6 10 9 14 16 13 8 12 12 13 14 16
7 8 10 11 7 8 7 3 3 6 6 7 6 2 2 3 2 4 5 6 7 5 5 4 5 6 5 10 10 7 7 8 9 4 3 5 12 10 5 11 12 16 16 14 14
6 8 10 11 8 8 4 2 4 5 6 4 3 3 3 2 2 6 6 6 7 4 4 4 3 5 8 9 10 6 12 12 8 2 5 7 15 13 15 17 18 19 19 20 16
5 7 10 11 7 8 3 4 4 3 5 2 4 5 2 2 5 4 5 8 4 6 7 4 5 9 3 10 9 15 15 13 11 9 11 11 13 11 12 13 14 14 17 20 18
6 6 9 9 7 6 5 7 2 2 5 4 2 1 2 5 3 2 5 7 5 8 6 2 9 6 9 9 11 13 14 14 11 7 10 11 8 5 7 6 9 15 13 14 15
7 6 8 7 3 4 3 5 7 6 3 5 3 0 1 4 5 4 7 7 9 8 7 7 3 6 9 11 13 15 12 13 7 3 8 12 4 3 10 13 17 14 13 13 13
8 7 8 7 2 4 1 6 7 9 4 6 5 4 3 4 4 3 7 9 7 7 6 8 6 6 9 11 13 14 9 15 15 13 7 16 8 8 18 15 18 22 23 17 14
10 7 7 6 2 5 3 2 10 6 5 10 6 4 3 3 5 2 3 4 3 5 8 6 3 6 10 10 12 11 17 13 8 7 7 10 2 7 16 15 18 20 21 19 15
12 8 5 4 3 3 5 2 10 2 5 6 5 3 2 4 3 3 3 3 5 5 4 5 6 8 9 11 11 10 14 8 6 9 7 12 5 5 19 16 22 24 21 17 15
13 10 6 5 4 3 1 7 6 5 4 6 5 3 5 2 2 5 2 2 3 4 6 5 3 3 7 14 7 14 14 5 6 8 1 13 5 5 12 12 17 20 21 18 18
16 13 10 6 5 3 4 5 5 7 3 7 5 3 3 2 3 2 2 5 5 4 1 5 4 1 6 13 3 15 14 3 2 4 7 13 3 7 12 11 11 14 19 19 17
17 16 13 11 10 6 6 6 9 3 5 4 4 5 5 1 3 1 3 2 3 6 5 4 4 4 8 6 7 8 7 3 2 5 6 8 8 6 9 7 12 20 19 17 19
18 15 16 14 11 9 8 9 9 3 7 9 5 7 6 4 4 4 1 1 3 6 6 4 0 3 4 4 7 9 7 3 2 5 5 2 9 5 10 14 19 22 25 23 22
15 9 12 15 13 9 8 14 3 4 6 9 8 6 6 7 5 3 2 3 2 2 6 2 4 3 2 2 3 4 3 2 1 4 5 3 9 8 14 15 15 19 22 23 24
12 8 12 18 15 10 11 17 5 8 8 7 7 6 5 5 4 3 2 5 2 3 4 4 3 5 3 1 5 2 2 3 3 2 4 7 7 8 10 10 12 16 16 19 23
13 7 11 20 12 14 14 12 4 12 8 4 4 6 8 7 5 4 2 1 4 1 4 3 5 4 2 4 1 3 4 6 4 6 4 4 4 7 7 9 10 12 12 15 17
11 14 12 20 9 13 12 6 9 10 10 9 9 7 4 7 5 5 4 4 5 2 3 1 3 5 8 4 3 4 1 4 6 4 7 4 4 4 6 9 9 11 12 12 15
15 7 8 17 21 14 18 15 10 13 10 7 7 8 8 7 4 5 5 4 5 3 1 2 6 8 7 7 5 9 8 6 6 4 8 3 5 4 4 4 7 9 10 11 12
21 16 17 10 19 16 16 12 19 10 9 15 7 12 11 7 7 6 7 6 5 5 4 4 6 6 11 11 11 13 12 12 13 12 7 8 6 3 1 4 7 9 9 10 11
24 14 17 20 27 24 17 20 21 18 16 12 12 17 14 8 8 9 11 8 5 8 6 4 4 6 12 7 5 10 9 10 12 12 12 13 12 0 7 8 8 9 10 10 10
32 22 14 20 16 18 24 24 23 18 16 15 19 11 16 14 8 7 6 4 2 5 8 4 3 4 3 2 8 11 4 11 12 7 9 6 5 8 7 8 10 11 11 12 12

GFSSW_850_spd_120.txt.gz
Wind_Speed
7 7 8 9 10 10 9 8 8 7 6 4 1 2 1 2 3 7 7 7 8 8 11 9 5 5 2 2 3 4 3 5 11 9 10 16 11 15 16 8 11 16 10 7 13
7 8 9 10 10 10 9 8 7 7 5 4 3 3 4 1 3 4 6 7 8 8 11 9 8 5 4 2 2 3 4 8 9 8 10 16 17 19 17 13 10 15 12 4 3
8 8 9 10 11 10 9 8 7 6 5 3 2 4 4 6 5 2 5 8 9 10 8 9 6 4 5 1 6 4 6 11 13 13 13 14 17 20 17 10 16 21 21 2 3
8 9 9 10 11 10 9 8 7 6 5 3 1 3 5 5 2 1 4 7 9 12 11 10 8 5 3 4 2 4 15 9 10 14 14 11 18 15 18 18 19 20 21 20 10
8 9 10 11 11 11 8 8 7 6 5 4 4 2 1 5 4 1 5 8 10 9 9 10 10 9 6 9 10 10 8 14 16 15 12 15 14 14 18 18 18 18 20 22 22
7 9 10 12 12 10 10 9 7 7 5 5 3 4 4 7 2 1 5 6 6 7 8 9 7 9 8 11 6 11 13 16 16 12 9 9 11 15 17 14 5 9 15 19 22
8 9 10 12 12 10 10 9 5 5 5 6 3 1 3 1 4 2 6 5 7 5 6 6 7 6 11 9 3 11 11 12 7 3 4 8 10 5 20 12 8 11 16 15 17
9 10 11 11 10 11 10 5 2 4 5 7 4 3 3 3 3 2 3 5 8 6 6 6 5 9 10 9 7 10 10 5 6 4 6 3 9 10 18 11 13 16 16 20 15
10 10 12 13 10 10 7 1 4 5 5 5 3 4 4 1 2 4 3 4 7 5 6 5 5 10 9 6 7 2 9 11 7 6 7 7 8 8 17 18 16 17 20 23 20
10 10 11 12 9 9 2 2 3 4 5 3 5 4 6 0 3 4 3 8 3 6 10 6 8 7 4 6 6 10 11 9 10 5 7 7 8 8 10 7 8 17 21 23 21
11 9 10 10 6 7 3 5 2 2 8 3 1 6 1 4 6 3 4 7 9 11 8 6 4 3 8 6 9 11 12 11 10 5 4 5 4 5 18 22 21 22 25 27 26
11 11 10 10 6 6 2 2 7 2 5 12 7 4 3 4 4 9 2 7 9 8 5 4 6 7 5 8 10 10 13 8 8 7 5 6 9 14 11 14 14 17 21 26 29
14 11 11 9 6 5 4 9 9 6 5 9 10 7 4 2 5 1 3 7 10 8 4 4 4 3 7 9 11 11 9 11 12 11 11 6 6 5 7 14 16 16 20 21 24
14 13 9 8 4 6 4 8 6 6 4 10 7 5 5 3 3 3 2 3 4 4 5 6 3 3 7 7 10 8 11 10 10 5 4 5 2 4 5 8 14 18 15 18 23
13 13 11 7 4 4 10 6 7 3 4 11 8 6 5 4 1 6 4 4 6 7 2 2 3 5 7 7 8 6 11 13 6 7 5 7 3 5 12 12 15 16 17 17 14
14 12 11 8 6 10 8 3 6 3 6 6 7 7 8 7 5 2 5 4 5 4 6 7 3 1 4 11 10 9 14 4 4 3 2 6 2 4 5 4 10 16 17 17 16
18 14 12 11 4 10 3 4 4 6 7 7 7 6 7 6 5 2 1 2 3 4 1 7 6 4 2 8 3 9 10 3 3 3 1 6 3 1 5 1 4 13 17 19 21
20 19 15 15 14 10 4 4 8 7 11 7 6 6 5 6 3 3 4 5 4 5 5 3 3 1 5 2 4 8 5 2 2 3 4 6 2 2 1 7 12 14 16 21 20
20 19 21 17 16 12 7 8 6 13 9 11 8 7 7 5 1 5 3 3 4 4 4 4 1 4 2 2 4 5 4 2 1 5 2 4 4 4 9 8 13 16 20 24 20
20 12 23 16 18 16 7 12 12 1 7 12 10 11 10 10 5 5 5 3 5 2 3 2 4 2 4 3 4 2 1 1 2 3 5 2 5 4 8 9 11 15 18 22 20
18 8 10 26 20 14 10 11 15 8 7 9 8 6 7 7 8 5 5 2 1 5 3 3 3 4 2 3 4 2 1 1 2 1 2 4 3 6 7 7 9 12 18 21 20
16 6 16 26 13 10 13 14 16 10 7 4 4 4 9 6 7 5 5 4 6 2 1 4 4 4 4 6 4 3 3 2 1 4 3 4 2 7 8 7 14 13 12 14 18
13 20 10 27 10 14 12 20 22 10 9 7 8 5 2 6 5 4 5 5 7 4 2 2 4 4 3 1 2 4 6 1 3 3 6 1 2 6 11 9 13 13 12 14 13
17 6 11 22 21 15 17 20 15 17 10 11 7 7 6 7 2 6 6 4 7 2 3 2 3 6 5 4 1 4 4 4 4 1 5 2 3 7 7 8 10 12 11 15 14
21 13 17 7 13 14 14 14 17 9 10 17 5 7 9 6 7 5 6 5 5 8 5 2 4 7 9 8 7 7 7 7 8 8 3 4 5 3 8 9 12 11 13 12 12
21 19 24 15 25 20 16 16 24 17 13 15 7 15 12 5 7 9 11 6 5 7 6 5 3 4 10 13 7 7 6 6 7 9 7 7 8 8 16 16 16 13 12 12 13
27 33 23 12 16 17 23 21 18 16 17 16 19 13 13 10 8 11 12 11 8 8 8 6 3 2 4 3 6 8 11 12 9 6 8 7 4 7 7 11 14 17 14 14 14

GFSSW_850_spd_126.txt.gz
Wind_Speed
6 7 9 10 10 10 10 9 8 7 5 3 1 3 5 3 2 2 2 4 6 8 9 10 7 7 3 3 2 1 4 1 2 3 5 10 7 3 12 16 6 11 7 4 1
7 8 9 11 10 11 11 9 8 7 5 3 2 4 6 5 2 1 3 7 8 6 6 6 4 2 1 2 3 4 3 4 3 3 4 5 6 14 8 14 5 16 14 5 5
8 8 8 10 12 11 11 11 8 6 5 4 3 3 6 6 3 4 2 4 5 6 7 8 3 5 1 4 4 4 4 4 9 10 6 7 13 11 6 5 18 18 19 7 8
8 9 10 10 10 12 12 10 9 7 5 6 4 2 3 5 3 4 2 3 5 4 7 6 7 4 2 1 1 0 7 7 7 9 10 7 12 8 9 17 21 18 16 13 10
6 8 9 11 11 13 11 10 10 7 6 6 4 4 3 4 5 5 3 1 4 2 4 4 5 2 1 3 7 3 3 5 12 17 14 15 11 5 15 23 11 12 11 9 13
9 9 9 12 14 14 11 12 9 7 7 7 6 7 4 3 6 5 1 0 5 5 2 3 2 2 2 3 1 3 8 15 14 16 11 6 4 2 10 17 16 13 14 15 14
9 9 9 10 14 15 12 12 8 5 6 7 8 7 7 10 7 4 1 1 3 5 4 2 3 0 2 4 3 9 6 8 4 4 4 3 4 2 9 10 14 15 15 15 17
10 9 8 10 12 13 13 10 5 4 5 8 7 5 6 5 8 6 3 3 3 5 5 6 4 2 2 5 6 4 4 4 6 2 2 2 5 5 9 13 19 20 20 21 20
11 10 9 8 10 11 11 6 2 3 5 7 6 5 5 8 13 7 7 5 5 4 4 4 5 1 1 3 5 5 2 4 6 4 3 3 2 5 10 15 20 25 26 25 27
11 12 10 9 9 8 7 3 3 5 7 7 7 3 9 10 11 11 8 4 1 2 4 3 1 2 3 4 1 4 4 4 5 4 2 2 2 4 10 17 17 21 22 25 28
12 11 12 10 9 8 4 1 3 4 12 10 6 6 4 9 8 9 10 7 8 4 2 1 3 3 6 6 4 2 3 4 4 2 2 2 3 2 4 13 19 22 24 25 29
14 11 12 11 9 7 3 1 3 5 9 19 19 13 11 8 5 9 12 6 4 5 2 3 5 8 7 0 1 1 2 4 6 5 4 4 2 3 4 2 12 18 26 27 27
15 14 11 11 9 6 3 3 5 8 4 9 22 23 13 12 6 8 15 5 5 3 4 5 4 5 1 1 3 2 4 3 5 6 3 5 2 4 4 4 10 17 25 26 23
16 15 14 10 8 6 4 0 7 3 2 5 7 8 16 9 3 11 9 5 2 4 4 4 1 3 2 2 3 3 7 5 3 3 2 3 4 3 5 8 4 14 22 22 25
16 16 13 12 6 4 2 5 2 4 3 3 5 8 13 9 9 7 7 5 4 3 5 5 4 2 2 4 3 8 3 6 3 3 2 4 3 5 5 7 9 19 22 25 23
19 16 16 14 14 6 5 2 6 4 7 3 7 6 6 5 5 10 4 4 2 1 1 5 1 4 4 2 4 5 2 7 5 3 2 4 3 4 4 4 6 17 21 23 25
16 19 19 16 10 8 7 7 3 5 1 6 6 6 5 6 4 6 5 3 4 3 1 2 3 2 2 2 3 8 5 2 4 4 4 1 2 6 2 4 5 12 17 21 21
18 21 24 23 17 10 9 3 5 7 7 2 5 6 8 7 6 7 6 3 3 3 2 4 4 5 2 3 2 1 5 4 5 1 4 4 2 5 4 8 7 8 12 16 19
24 27 30 27 19 15 9 4 9 7 6 9 4 4 5 5 6 4 7 5 7 7 6 4 3 1 2 2 4 1 1 3 5 3 3 3 2 3 4 3 5 8 11 14 15
22 30 36 28 20 21 3 11 8 7 4 4 11 6 9 8 6 7 8 4 6 4 3 5 1 4 3 2 1 2 5 2 3 2 2 4 3 4 4 4 3 5 8 9 11
19 14 16 28 22 18 9 8 8 18 5 6 8 7 7 8 8 7 7 1 6 6 5 3 3 2 3 4 6 1 1 1 3 4 4 1 5 5 6 5 6 1 4 6 9
19 4 13 23 13 7 10 8 11 16 20 7 4 5 9 10 7 7 10 5 13 12 7 3 4 3 5 2 2 4 5 5 4 3 1 3 5 3 7 10 13 8 4 7 10
8 10 19 23 7 10 4 8 11 12 6 8 8 7 4 8 5 4 5 1 14 6 8 6 2 1 5 4 3 3 4 4 4 2 4 5 5 3 5 10 13 14 10 11 12
7 3 6 23 24 8 11 13 21 21 7 7 7 4 4 3 4 7 4 2 6 6 9 6 3 5 6 4 4 4 5 5 6 3 3 5 3 5 7 7 13 15 14 13 14
15 6 7 5 15 21 8 8 18 15 20 19 6 10 8 5 3 5 4 3 4 10 4 5 5 5 6 7 3 6 6 8 8 6 6 4 7 7 13 12 20 20 19 18 16
10 6 6 2 31 24 20 11 18 20 12 14 13 9 8 8 8 9 9 5 6 3 6 2 2 3 4 4 8 6 9 10 9 6 7 5 9 7 17 21 18 24 25 22 21
23 19 11 10 8 14 20 27 19 13 17 21 17 10 11 11 15 13 14 19 14 10 7 7 5 3 4 3 3 6 9 10 6 6 10 9 10 6 4 16 25 28 28 26 25

GFSSW_850_spd_132.txt.gz
Wind_Speed
9 10 10 10 11 12 12 11 11 10 8 7 6 7 7 6 3 1 2 5 6 7 8 6 8 5 4 3 2 3 4 2 3 4 4 4 2 1 4 4 9 3 7 10 6
8 9 11 12 12 12 13 13 10 10 9 8 8 7 8 8 5 2 3 5 7 4 4 5 3 1 0 3 2 4 3 7 5 4 4 5 3 6 2 9 4 12 7 8 6
8 8 10 12 12 13 14 14 10 8 10 8 8 8 7 7 4 4 5 5 4 3 2 2 1 3 1 2 3 4 4 4 5 13 9 3 3 2 3 4 6 12 9 4 5
8 9 9 11 13 15 15 13 12 11 9 9 9 7 6 8 3 6 5 3 3 1 1 0 1 4 2 2 3 1 6 6 4 5 3 3 3 3 5 3 9 7 6 6 5
11 11 11 10 11 15 19 16 13 13 9 8 8 6 4 6 4 5 5 3 2 1 1 1 2 4 3 3 2 3 4 5 11 11 11 7 4 3 6 1 4 6 6 7 6
11 12 13 13 12 13 16 17 18 13 9 8 8 8 6 3 3 7 5 4 2 1 1 1 2 3 3 3 2 3 7 11 7 7 5 5 3 8 3 2 4 8 11 9 10
12 12 13 13 13 13 16 17 16 12 8 6 8 10 9 6 4 8 6 5 4 0 2 1 2 3 3 2 3 3 4 7 2 4 1 6 1 4 1 1 5 10 12 13 12
14 13 13 14 14 14 15 16 14 9 6 5 8 9 7 7 14 11 9 7 4 4 1 2 1 1 2 2 4 3 4 4 4 4 1 3 7 4 2 1 4 11 15 20 20
16 16 14 14 16 14 13 14 11 6 5 5 7 7 5 8 12 14 11 6 3 5 4 2 2 1 0 3 4 5 2 3 7 3 3 4 5 4 4 1 5 11 19 24 26
17 17 16 15 14 16 13 10 8 7 5 6 6 5 10 8 11 15 13 9 3 5 4 2 1 2 3 4 3 4 2 4 5 4 1 4 9 5 5 2 5 13 21 24 25
17 17 18 16 15 14 13 6 3 3 8 11 6 6 2 10 10 14 14 12 8 3 3 2 3 6 8 7 3 2 3 5 5 5 3 3 6 6 5 4 4 13 24 24 24
20 18 18 17 16 14 12 4 3 5 8 14 27 20 11 8 7 13 14 12 7 5 4 4 6 10 4 4 4 3 3 5 5 3 1 5 8 5 3 2 5 17 20 22 25
21 23 20 16 16 13 7 4 5 8 4 10 19 28 24 18 9 15 18 14 5 6 6 7 5 3 6 3 3 3 4 4 5 5 0 5 6 3 2 2 6 18 16 16 22
19 19 21 17 11 8 5 4 4 3 4 7 5 8 20 10 6 18 21 10 3 8 6 6 5 6 4 4 6 3 3 3 2 4 2 3 4 4 2 6 4 16 17 21 25
19 16 16 17 11 8 5 5 2 1 4 4 5 4 13 19 12 7 22 12 8 6 6 6 5 5 4 6 7 6 1 1 1 2 3 2 2 6 3 4 6 14 18 21 24
20 19 17 15 14 10 9 5 2 4 9 3 7 6 5 3 4 8 6 7 4 5 1 5 1 4 7 2 3 3 2 5 4 2 2 2 3 5 3 3 4 9 18 21 23
20 22 21 16 10 5 5 4 0 6 2 6 5 7 4 5 4 6 6 5 6 5 5 1 3 2 3 3 1 3 5 3 4 3 5 1 2 8 3 2 3 6 15 16 20
22 23 23 24 15 15 7 3 7 6 9 3 2 5 7 5 5 5 7 6 4 4 3 6 3 7 5 5 7 2 5 5 5 2 5 3 4 4 1 4 2 5 9 10 12
25 25 25 22 20 16 11 7 9 7 5 8 3 3 5 4 5 4 8 7 9 10 8 5 4 1 2 3 5 3 2 4 6 2 3 3 6 5 1 3 2 6 6 7 9
23 26 32 24 21 18 5 13 10 8 2 4 13 7 10 8 7 6 9 6 7 10 4 7 3 1 2 5 5 3 7 3 3 1 3 4 4 5 4 4 3 3 3 4 5
20 11 14 12 13 11 6 11 7 17 6 7 9 7 7 9 10 6 5 3 5 7 5 5 4 2 3 6 8 3 2 4 4 4 4 2 5 6 5 4 4 6 3 1 3
13 3 8 12 9 3 7 7 5 5 28 8 2 6 9 10 8 9 10 5 13 15 10 6 5 4 6 1 4 4 6 6 4 4 2 3 6 1 5 6 6 6 6 4 4
9 15 20 20 9 8 4 13 17 10 14 4 6 7 4 9 4 7 7 0 15 9 11 9 2 3 5 4 1 4 5 4 5 3 6 5 5 1 2 5 9 7 7 7 7
9 3 11 23 28 11 12 14 8 18 19 8 5 2 3 4 1 7 4 2 8 6 6 10 4 6 7 5 5 5 6 6 6 4 5 6 3 6 7 8 11 13 11 9 10
13 7 11 5 15 19 17 6 20 15 20 14 6 16 7 5 3 5 3 3 3 11 4 5 6 5 5 2 4 5 6 9 9 5 7 6 9 8 12 13 22 19 15 14 13
15 5 10 20 27 15 22 23 16 15 16 23 13 17 8 7 7 8 8 5 7 5 7 1 3 4 2 5 7 5 7 10 10 4 8 4 8 8 4 18 17 21 21 21 19
25 29 20 15 12 14 6 18 21 18 16 29 27 17 17 20 13 17 15 13 10 12 8 8 6 4 4 3 5 5 12 15 6 6 10 9 10 6 4 11 24 28 27 27 25

GFSSW_850_spd_135.txt.gz
Wind_Speed
7 7 8 8 9 10 12 12 11 10 8 7 6 6 8 8 7 5 5 4 6 7 6 8 8 8 7 5 4 5 3 1 3 5 2 2 1 1 2 4 5 2 5 8 8
7 8 9 9 9 10 12 15 14 11 9 8 7 7 8 9 9 9 4 6 8 5 6 9 8 6 4 4 3 4 2 5 4 4 3 2 3 4 1 5 3 8 3 6 7
8 9 10 10 11 11 12 13 15 13 11 9 7 6 7 7 7 8 8 8 7 5 5 6 6 4 4 4 2 3 3 3 4 11 5 3 3 3 2 1 2 9 8 4 5
9 10 10 11 11 12 14 14 12 14 14 11 7 6 6 6 4 9 10 8 7 4 5 5 4 4 3 2 3 1 6 5 3 3 4 4 3 2 2 4 3 4 2 0 1
10 11 10 11 12 13 14 16 13 12 13 11 7 6 5 6 8 9 10 8 6 5 4 4 4 5 4 4 4 3 3 5 8 9 11 9 9 5 7 5 2 1 1 2 4
11 12 13 12 13 13 14 17 17 12 8 9 8 9 7 6 7 11 10 8 5 3 3 2 4 6 5 3 4 3 5 9 9 3 5 5 3 9 7 6 4 2 2 4 7
13 13 14 14 14 13 14 15 17 14 6 7 9 10 10 12 6 12 10 7 5 2 3 3 4 5 6 3 2 1 3 4 3 2 2 6 2 5 6 7 4 1 5 8 12
14 14 15 15 16 15 14 16 15 12 6 7 9 9 7 8 12 13 12 9 7 4 3 4 3 4 2 3 3 2 3 2 1 4 1 3 6 3 5 6 4 4 10 16 20
16 16 15 16 16 17 15 16 13 8 5 5 8 8 5 9 15 17 13 10 8 6 5 4 2 2 2 3 2 4 1 2 6 3 1 3 4 2 5 5 5 8 15 22 26
21 19 18 17 17 17 15 14 10 8 6 8 9 4 10 7 12 17 17 12 6 8 6 4 2 2 2 2 3 3 2 2 4 2 1 3 10 6 9 6 3 10 18 24 22
21 23 20 18 17 17 15 10 4 3 9 10 9 5 4 10 11 16 19 15 9 6 4 1 2 6 9 5 2 3 2 4 4 4 2 4 7 10 7 4 3 13 19 22 23
20 22 25 18 18 17 13 3 3 5 10 16 26 22 12 13 9 14 20 13 8 5 4 2 6 8 4 5 4 2 2 4 4 3 3 4 12 3 5 3 5 12 20 23 27
19 19 22 22 15 14 8 5 5 6 6 10 22 23 26 21 11 21 23 14 4 6 6 6 4 4 5 4 5 3 4 4 5 2 1 5 4 2 2 3 6 13 14 18 22
19 18 18 22 12 6 4 3 6 5 3 7 6 7 19 14 7 13 25 13 3 9 6 5 4 6 5 4 5 2 4 3 2 1 3 3 4 2 2 1 5 12 12 22 20
18 18 16 15 14 11 6 4 4 4 6 3 5 4 12 17 13 11 27 14 9 7 6 6 4 4 3 5 7 5 2 2 1 2 1 1 2 3 1 3 5 11 15 18 18
19 18 17 15 11 12 9 4 2 3 9 3 6 5 7 3 1 7 11 7 6 4 1 4 2 4 6 2 3 5 4 4 3 2 2 2 2 3 3 2 3 7 11 12 15
22 19 17 16 12 8 5 6 1 6 3 5 5 5 7 6 2 2 7 6 7 4 6 1 3 2 4 4 2 3 3 1 0 1 3 2 0 6 5 5 4 4 7 10 12
22 22 20 18 16 13 9 2 7 6 14 1 4 3 8 6 5 4 6 8 4 5 3 6 4 8 5 5 6 4 5 4 4 2 2 1 5 2 4 8 4 2 5 5 7
24 24 23 20 12 12 9 8 9 7 6 9 2 4 4 4 5 5 7 6 9 9 7 5 4 2 2 3 4 4 4 3 6 1 1 2 5 3 6 5 5 5 4 3 5
22 25 25 9 12 12 4 12 7 3 5 2 18 8 12 8 7 8 9 6 7 12 6 5 3 1 3 5 6 3 8 3 1 3 3 3 4 3 6 8 8 9 7 3 1
19 9 12 10 7 11 9 9 8 24 14 4 5 6 7 8 9 7 9 3 5 7 6 5 2 2 4 5 8 2 2 4 3 2 3 2 4 6 7 9 12 11 11 8 3
9 3 4 6 5 6 9 5 9 16 14 12 5 5 8 9 8 9 13 8 17 16 10 6 4 4 5 2 4 3 5 6 3 5 1 0 5 3 6 9 13 14 13 10 6
6 11 16 13 3 7 10 13 15 17 11 2 11 7 3 8 4 8 8 3 21 11 14 9 3 3 3 3 0 4 5 4 5 3 6 5 4 2 4 7 11 16 14 13 9
5 3 6 15 22 10 14 13 16 18 20 22 6 14 4 3 2 4 6 3 17 10 15 14 4 6 8 5 5 6 7 7 5 4 6 6 2 5 9 10 13 16 17 18 15
11 7 9 3 7 12 13 12 17 10 15 12 10 22 15 4 2 4 1 3 1 8 6 6 7 6 4 2 4 5 8 13 12 7 7 5 11 9 12 15 21 24 23 21 20
9 7 6 12 20 14 13 11 16 22 18 16 17 18 22 13 3 2 3 4 6 5 7 2 5 5 4 5 4 3 5 14 13 3 9 2 8 7 3 15 18 25 28 25 26
21 22 16 12 5 6 11 16 17 12 23 22 17 15 18 23 17 18 18 24 8 6 12 9 7 5 4 4 5 5 15 13 8 6 12 10 11 6 5 10 22 29 34 34 33

GFSSW_850_spd_138.txt.gz
Wind_Speed
7 7 9 9 9 10 10 11 10 8 8 9 8 8 8 8 8 7 6 5 6 4 5 7 7 7 5 3 3 3 4 4 2 4 2 4 4 3 2 6 3 3 6 5 8
7 8 8 9 9 10 12 13 13 9 7 7 9 9 8 8 9 10 6 5 7 5 6 8 7 7 2 4 3 6 3 1 0 3 3 2 5 3 5 5 5 4 4 7 6
8 9 9 11 11 11 12 14 13 12 11 8 8 8 8 6 6 6 10 8 8 6 6 8 7 5 5 6 5 3 2 1 3 7 5 5 6 6 6 6 3 4 6 5 4
10 10 11 11 11 12 13 14 15 14 14 11 6 8 7 4 3 4 10 9 9 5 5 7 7 7 6 6 4 5 3 4 2 3 5 8 5 7 9 5 3 1 1 3 4
10 11 12 12 13 13 14 14 15 15 14 12 8 6 7 5 8 6 10 9 8 6 6 7 8 8 7 4 5 6 3 6 9 7 10 10 13 10 10 8 5 4 3 4 5
11 11 12 13 14 14 14 15 16 16 14 9 8 7 8 9 8 10 12 10 8 7 7 7 6 7 4 4 7 1 6 10 9 8 7 7 8 7 11 10 8 6 4 4 6
13 13 13 14 15 16 15 16 16 16 12 8 8 8 10 10 8 13 14 10 8 5 5 6 6 6 5 4 3 3 8 8 10 7 4 6 8 11 7 11 11 9 7 6 8
17 16 15 15 15 17 16 16 17 14 10 8 6 8 8 10 12 16 18 14 12 8 5 5 4 4 3 3 2 5 5 7 5 3 3 6 12 3 10 12 13 10 10 10 12
22 22 18 16 17 17 16 17 16 12 8 6 4 7 6 11 17 18 19 14 14 10 7 5 3 3 4 6 6 5 6 6 4 3 3 10 9 2 9 11 13 12 12 13 16
18 19 23 18 18 19 17 16 13 10 8 7 9 5 12 8 15 24 21 15 10 11 7 5 4 7 6 8 7 4 6 5 7 4 6 12 16 11 10 11 13 12 14 16 20
20 20 23 21 18 18 18 12 5 4 8 10 4 6 3 8 12 18 24 16 10 11 9 6 8 11 13 11 8 7 8 10 8 5 7 12 12 10 9 11 10 10 13 18 20
20 19 19 23 20 15 13 4 4 6 11 17 24 22 16 12 9 14 21 18 13 13 8 5 14 13 5 5 9 9 10 12 9 4 6 10 14 11 7 8 4 8 14 16 22
18 18 20 17 19 12 8 4 5 7 8 13 21 19 22 20 14 22 28 23 17 15 14 15 2 3 10 9 11 12 13 10 10 3 11 10 14 6 4 5 3 6 9 14 15
20 19 18 16 11 6 2 4 6 4 6 7 8 10 18 17 13 16 31 20 8 16 12 11 14 11 9 12 13 12 7 9 7 5 6 2 4 8 7 7 3 6 7 9 14
21 19 17 13 10 9 8 8 4 2 8 6 6 4 9 24 14 14 27 17 16 12 8 5 9 9 12 15 13 4 4 4 5 9 8 8 5 5 5 8 4 3 5 8 12
21 19 17 12 12 9 10 7 3 5 11 3 5 8 10 21 5 8 15 10 8 10 7 11 2 5 4 4 9 11 5 2 3 4 6 4 5 4 6 3 2 1 3 6 9
21 19 17 15 11 10 6 1 6 12 3 6 5 8 15 14 11 11 19 17 14 12 17 13 14 5 8 8 6 9 6 3 4 5 2 3 5 7 5 5 3 2 4 4 7
22 21 18 17 13 11 6 3 12 12 21 4 2 4 11 9 13 10 15 19 22 15 2 13 7 17 14 13 8 14 10 4 4 3 1 2 6 1 4 7 6 4 3 4 5
20 22 21 17 11 7 7 7 12 14 9 9 10 7 12 11 7 12 17 20 18 20 13 8 7 6 7 6 10 7 9 1 1 1 4 5 5 5 6 8 8 8 6 6 4
17 16 20 4 10 11 7 19 14 13 13 10 14 13 14 12 11 15 15 16 13 23 20 7 4 6 5 6 4 6 12 4 4 4 5 6 5 4 12 13 11 11 11 8 7
13 7 7 8 7 12 9 9 19 26 16 5 14 15 18 14 17 14 11 9 16 19 23 11 6 6 8 12 15 7 6 4 3 4 3 3 2 0 13 13 14 13 13 11 8
8 4 6 7 8 7 11 10 8 20 18 10 11 13 14 13 12 14 18 14 19 19 17 20 10 8 13 2 6 14 14 16 6 6 3 4 2 5 10 12 14 15 14 12 8
10 12 10 6 5 9 16 16 19 20 20 8 7 16 20 13 8 13 11 1 14 16 18 13 10 9 5 5 5 10 15 15 7 2 9 4 3 7 10 12 15 17 16 14 10
10 5 11 16 19 16 17 19 19 17 18 23 20 16 16 19 19 9 6 1 7 11 14 23 8 19 12 4 10 11 20 20 17 9 7 11 4 12 14 14 17 19 19 17 14
17 8 12 6 10 14 15 10 15 18 15 9 18 25 19 7 20 22 6 3 2 5 6 14 14 16 8 5 10 8 18 22 21 20 11 3 15 12 19 19 24 23 21 20 17
11 8 12 12 13 13 12 13 19 20 17 20 17 23 22 25 18 10 13 5 4 3 3 5 8 13 15 8 9 5 11 20 23 22 20 15 14 6 14 21 22 25 25 25 23
25 17 12 9 10 9 15 19 16 17 20 25 20 21 21 24 25 33 3 9 10 11 10 11 8 9 16 12 6 11 19 19 14 16 22 16 15 8 11 18 28 29 30 30 29

GFSSW_850_spd_141.txt.gz
Wind_Speed
8 9 10 10 10 10 11 12 12 13 12 12 11 11 9 9 10 9 7 7 7 4 3 3 3 3 3 3 5 4 6 7 7 6 3 5 6 5 3 8 5 5 8 5 7
8 9 10 11 11 11 12 12 13 13 12 13 13 11 9 9 10 14 12 9 6 5 5 7 5 5 4 4 5 7 7 6 6 4 4 3 7 7 5 9 9 7 6 4 6
9 10 10 11 11 12 12 13 14 13 14 13 13 10 8 7 11 12 14 9 8 6 5 7 5 5 7 6 8 5 8 4 5 6 5 7 8 10 9 9 9 5 4 4 3
11 11 12 12 13 14 14 14 15 16 15 14 11 8 7 3 4 1 8 9 9 7 6 5 7 8 5 8 8 8 10 7 3 2 5 9 10 9 12 13 2 5 4 4 5
12 12 13 13 13 13 14 15 15 16 18 16 10 7 6 8 12 9 9 9 9 8 8 7 9 9 11 7 8 12 11 7 8 7 10 12 13 14 15 13 9 8 7 7 8
13 13 14 15 16 15 15 16 16 16 16 14 10 7 7 14 5 10 11 11 9 9 8 9 8 8 10 10 9 5 9 11 10 12 13 12 14 15 15 16 13 11 11 10 9
17 16 15 16 17 17 17 17 17 16 16 12 9 7 10 14 4 11 15 12 10 8 9 9 8 8 3 9 13 11 12 12 14 15 12 7 15 17 18 11 16 15 13 12 11
17 20 18 17 17 19 18 18 17 16 14 10 7 5 9 10 12 14 15 12 10 8 6 7 7 7 8 5 8 10 12 11 4 5 8 7 15 10 8 11 16 16 16 13 13
18 18 21 18 17 19 19 19 17 16 12 8 4 7 11 11 16 16 18 15 12 8 6 5 5 8 5 10 10 11 12 8 6 9 8 10 11 6 6 11 15 17 16 15 15
19 20 20 21 20 19 18 17 15 13 11 8 8 6 14 9 11 18 19 15 14 11 8 10 8 9 10 11 11 8 10 9 8 5 8 14 17 16 18 12 16 16 14 15 15
18 19 21 20 19 20 18 12 6 5 9 13 6 13 3 7 10 18 21 19 15 15 14 14 10 14 15 14 16 13 13 15 13 6 8 16 16 14 12 14 14 13 11 12 16
19 20 21 19 17 16 11 6 4 8 14 20 27 26 19 9 10 17 24 21 20 18 17 10 15 17 13 8 9 12 16 16 13 5 8 16 18 15 13 11 11 6 8 11 14
23 22 20 16 11 8 5 4 8 6 10 20 29 31 28 26 20 23 30 30 22 19 19 18 8 3 12 12 13 15 15 15 15 11 13 17 22 15 7 7 6 6 4 6 8
25 23 22 19 3 4 1 6 9 5 7 12 9 10 25 21 17 26 32 30 17 20 19 15 21 12 10 14 11 14 13 11 12 8 8 2 7 6 12 10 9 5 1 3 5
26 23 18 15 13 6 8 8 6 3 8 10 9 2 6 23 9 24 27 33 22 18 14 9 11 13 16 18 15 14 0 5 8 10 14 16 7 9 10 10 11 4 2 2 3
23 24 19 11 11 10 10 5 1 6 13 5 6 7 9 24 13 5 24 30 22 20 17 20 1 10 13 5 9 5 5 6 8 8 9 18 12 6 10 10 8 6 7 4 3
24 23 19 14 7 12 7 3 6 10 2 7 6 7 14 15 20 12 20 24 15 17 21 19 20 9 9 8 5 10 7 3 5 5 4 4 5 13 8 6 6 8 9 5 3
24 23 21 14 11 9 4 5 14 11 23 1 1 5 10 12 19 17 18 23 27 20 10 18 11 24 18 20 9 17 15 5 5 4 2 2 7 2 6 10 10 9 8 7 4
22 18 16 11 9 9 10 12 11 14 16 20 17 20 16 16 9 19 23 24 25 27 16 11 12 6 6 16 16 11 13 13 13 11 6 7 10 5 9 11 11 11 11 9 6
17 18 21 13 9 12 10 23 18 17 16 9 15 13 16 19 14 12 15 14 25 26 23 11 8 10 6 8 10 10 10 7 6 4 6 8 10 6 15 15 13 12 14 12 9
15 14 14 13 10 14 12 16 20 33 28 8 14 18 19 20 20 19 11 15 19 19 21 19 12 7 9 14 16 10 12 8 5 9 4 5 3 7 14 16 15 14 16 15 12
17 5 14 15 17 17 14 19 15 28 23 18 7 19 21 22 19 21 25 19 17 13 22 26 12 12 16 1 17 20 18 18 7 9 8 9 3 4 11 12 15 16 17 16 14
14 20 17 20 10 11 18 22 26 23 21 20 20 17 15 19 21 17 19 15 5 10 12 13 14 13 13 7 7 12 20 20 19 11 12 8 1 4 10 11 14 17 18 18 16
12 4 20 22 24 21 21 22 22 25 19 9 14 22 20 19 18 11 16 5 7 8 14 7 15 24 17 14 14 12 21 23 20 14 16 16 5 11 12 13 14 18 19 19 18
26 6 9 5 17 22 20 18 17 18 19 18 14 16 21 24 25 19 25 23 14 8 5 7 13 23 24 25 9 13 21 26 27 26 15 16 16 13 17 17 19 21 21 21 20
27 7 17 22 21 20 18 21 23 19 15 12 15 17 17 14 16 20 15 15 7 8 4 6 14 19 22 23 12 14 16 22 28 25 24 17 12 6 19 21 20 23 24 23 23
35 33 12 15 17 16 16 22 18 16 18 19 18 18 19 18 23 26 23 17 9 3 4 5 12 17 18 20 11 15 23 20 21 24 24 21 21 9 11 19 25 27 27 27 26